Time,TemperatureF,DewpointF,PressureIn,WindDirection,WindDirectionDegrees,WindSpeedMPH,WindSpeedGustMPH,Humidity,HourlyPrecipIn,Conditions,Clouds,dailyrainin,SoftwareType,DateUTC
2013-05-25 00:02:00,56.7,41.2,30.23,East,90,6.0,8.0,56,0.00,,,0.00,meteohub,2013-05-25 05:02:00,
2013-05-25 00:07:00,56.5,41.0,30.22,SE,135,7.0,8.0,56,0.00,,,0.00,meteohub,2013-05-25 05:07:00,
2013-05-25 00:12:00,56.3,41.2,30.22,SE,135,7.0,9.0,57,0.00,,,0.00,meteohub,2013-05-25 05:12:00,
2013-05-25 00:17:00,56.3,41.2,30.22,SE,135,8.0,9.0,57,0.00,,,0.00,meteohub,2013-05-25 05:17:00,
2013-05-25 00:22:00,55.9,41.4,30.22,SE,135,5.0,9.0,58,0.00,,,0.00,meteohub,2013-05-25 05:22:00,
2013-05-25 00:27:00,55.8,41.7,30.22,SE,135,5.0,8.0,59,0.00,,,0.00,meteohub,2013-05-25 05:27:00,
2013-05-25 00:32:00,55.8,41.7,30.21,SE,135,8.0,8.0,59,0.00,,,0.00,meteohub,2013-05-25 05:32:00,
2013-05-25 00:37:00,55.9,41.9,30.20,SE,135,6.0,8.0,59,0.00,,,0.00,meteohub,2013-05-25 05:37:00,
2013-05-25 00:42:00,55.9,41.9,30.21,SE,135,8.0,9.0,59,0.00,,,0.00,meteohub,2013-05-25 05:42:00,
2013-05-25 00:47:00,55.9,42.3,30.20,SE,135,7.0,9.0,60,0.00,,,0.00,meteohub,2013-05-25 05:47:00,
2013-05-25 00:52:00,55.6,42.3,30.20,SE,135,10.0,10.0,61,0.00,,,0.00,meteohub,2013-05-25 05:52:00,
2013-05-25 00:57:00,55.4,42.6,30.20,SE,135,8.0,10.0,62,0.00,,,0.00,meteohub,2013-05-25 05:57:00,
2013-05-25 01:02:00,55.4,43.0,30.21,South,180,7.0,10.0,63,0.00,,,0.00,meteohub,2013-05-25 06:02:00,
2013-05-25 01:07:00,55.4,43.0,30.21,East,90,8.0,10.0,63,0.00,,,0.00,meteohub,2013-05-25 06:07:00,
2013-05-25 01:12:00,55.4,43.3,30.20,East,90,11.0,11.0,64,0.00,,,0.00,meteohub,2013-05-25 06:12:00,
2013-05-25 01:17:00,55.2,43.3,30.20,SE,135,9.0,11.0,64,0.00,,,0.00,meteohub,2013-05-25 06:17:00,
2013-05-25 01:22:00,55.0,43.2,30.20,SE,135,8.0,14.0,64,0.00,,,0.00,meteohub,2013-05-25 06:22:00,
2013-05-25 01:27:00,54.9,43.0,30.22,SE,135,8.0,14.0,64,0.00,,,0.00,meteohub,2013-05-25 06:27:00,
2013-05-25 01:32:00,54.9,43.0,30.22,SE,135,7.0,14.0,64,0.00,,,0.00,meteohub,2013-05-25 06:32:00,
2013-05-25 01:37:00,54.7,43.2,30.22,SE,135,5.0,11.0,65,0.00,,,0.00,meteohub,2013-05-25 06:37:00,
2013-05-25 01:42:00,54.3,43.2,30.22,SE,135,7.0,11.0,66,0.00,,,0.00,meteohub,2013-05-25 06:42:00,
2013-05-25 01:47:00,53.8,43.9,30.23,East,90,4.0,9.0,69,0.00,,,0.00,meteohub,2013-05-25 06:47:00,
2013-05-25 01:52:00,53.4,44.6,30.24,SE,135,4.0,8.0,72,0.00,,,0.00,meteohub,2013-05-25 06:52:00,
2013-05-25 01:57:00,52.9,44.4,30.24,SE,135,4.0,8.0,73,0.00,,,0.00,meteohub,2013-05-25 06:57:00,
2013-05-25 02:02:00,52.7,44.2,30.25,SE,135,3.0,7.0,73,0.00,,,0.00,meteohub,2013-05-25 07:02:00,
2013-05-25 02:07:00,52.7,44.6,30.26,East,90,4.0,4.0,74,0.00,,,0.00,meteohub,2013-05-25 07:07:00,
2013-05-25 02:12:00,52.5,44.8,30.25,SE,135,6.0,7.0,75,0.01,,,0.01,meteohub,2013-05-25 07:12:00,
2013-05-25 02:17:00,52.0,45.3,30.25,SE,135,8.0,8.0,78,0.02,,,0.02,meteohub,2013-05-25 07:17:00,
2013-05-25 02:22:00,51.3,46.2,30.25,South,180,8.0,8.0,83,0.04,,,0.04,meteohub,2013-05-25 07:22:00,
2013-05-25 02:27:00,51.1,46.0,30.24,SE,135,8.0,10.0,83,0.05,,,0.05,meteohub,2013-05-25 07:27:00,
2013-05-25 02:32:00,50.5,46.2,30.24,SE,135,9.0,10.0,85,0.06,,,0.06,meteohub,2013-05-25 07:32:00,
2013-05-25 02:37:00,50.5,46.2,30.24,SE,135,8.0,9.0,85,0.06,,,0.06,meteohub,2013-05-25 07:37:00,
2013-05-25 02:42:00,50.2,46.2,30.24,SE,135,7.0,10.0,86,0.06,,,0.06,meteohub,2013-05-25 07:42:00,
2013-05-25 02:47:00,50.0,46.2,30.24,SE,135,6.0,10.0,87,0.08,,,0.07,meteohub,2013-05-25 07:47:00,
2013-05-25 02:52:00,49.6,46.6,30.24,SE,135,7.0,9.0,89,0.09,,,0.09,meteohub,2013-05-25 07:52:00,
2013-05-25 02:57:00,49.6,46.6,30.24,East,90,6.0,8.0,89,0.11,,,0.11,meteohub,2013-05-25 07:57:00,
2013-05-25 03:02:00,49.5,46.6,30.24,SE,135,8.0,8.0,90,0.11,,,0.11,meteohub,2013-05-25 08:02:00,
2013-05-25 03:07:00,49.5,46.6,30.24,SE,135,4.0,8.0,90,0.11,,,0.12,meteohub,2013-05-25 08:07:00,
2013-05-25 03:12:00,49.3,46.2,30.23,SE,135,9.0,9.0,89,0.12,,,0.13,meteohub,2013-05-25 08:12:00,
2013-05-25 03:17:00,49.1,46.0,30.22,East,90,8.0,9.0,89,0.11,,,0.13,meteohub,2013-05-25 08:17:00,
2013-05-25 03:22:00,49.1,46.0,30.22,East,90,8.0,9.0,89,0.08,,,0.13,meteohub,2013-05-25 08:22:00,
2013-05-25 03:27:00,49.1,46.2,30.22,East,90,6.0,9.0,90,0.08,,,0.13,meteohub,2013-05-25 08:27:00,
2013-05-25 03:32:00,49.1,46.2,30.22,SE,135,5.0,9.0,90,0.07,,,0.13,meteohub,2013-05-25 08:32:00,
2013-05-25 03:37:00,48.9,46.4,30.22,North,0,5.0,9.0,91,0.07,,,0.13,meteohub,2013-05-25 08:37:00,
2013-05-25 03:42:00,49.1,46.2,30.22,ESE,113,9.0,10.0,90,0.07,,,0.13,meteohub,2013-05-25 08:42:00,
2013-05-25 03:47:00,48.9,46.0,30.23,East,90,8.0,10.0,90,0.05,,,0.13,meteohub,2013-05-25 08:47:00,
2013-05-25 03:52:00,48.9,45.9,30.23,East,90,7.0,10.0,89,0.04,,,0.13,meteohub,2013-05-25 08:52:00,
2013-05-25 03:57:00,48.7,45.7,30.23,East,90,5.0,9.0,89,0.02,,,0.13,meteohub,2013-05-25 08:57:00,
2013-05-25 04:02:00,48.6,45.7,30.23,NE,45,5.0,8.0,90,0.01,,,0.13,meteohub,2013-05-25 09:02:00,
2013-05-25 04:07:00,48.6,45.7,30.23,SE,135,5.0,8.0,90,0.00,,,0.13,meteohub,2013-05-25 09:07:00,
2013-05-25 04:12:00,48.4,45.9,30.23,South,180,5.0,8.0,91,0.00,,,0.13,meteohub,2013-05-25 09:12:00,
2013-05-25 04:17:00,48.0,46.0,30.23,SE,135,7.0,11.0,93,0.00,,,0.13,meteohub,2013-05-25 09:17:00,
2013-05-25 04:22:00,47.8,46.2,30.23,SE,135,7.0,11.0,94,0.00,,,0.13,meteohub,2013-05-25 09:22:00,
2013-05-25 04:27:00,47.8,46.4,30.24,SE,135,6.0,11.0,95,0.01,,,0.14,meteohub,2013-05-25 09:27:00,
2013-05-25 04:32:00,47.8,46.8,30.24,SE,135,5.0,8.0,96,0.01,,,0.14,meteohub,2013-05-25 09:32:00,
2013-05-25 04:37:00,47.7,46.6,30.24,East,90,4.0,8.0,96,0.01,,,0.14,meteohub,2013-05-25 09:37:00,
2013-05-25 04:42:00,47.7,46.6,30.23,SE,135,8.0,8.0,96,0.01,,,0.14,meteohub,2013-05-25 09:42:00,
2013-05-25 04:47:00,47.5,46.8,30.23,SE,135,8.0,8.0,97,0.01,,,0.14,meteohub,2013-05-25 09:47:00,
2013-05-25 04:52:00,47.5,46.8,30.23,East,90,8.0,11.0,97,0.01,,,0.14,meteohub,2013-05-25 09:52:00,
2013-05-25 04:57:00,47.5,46.4,30.23,SE,135,10.0,11.0,96,0.01,,,0.14,meteohub,2013-05-25 09:57:00,
2013-05-25 05:02:00,47.7,46.6,30.23,East,90,8.0,11.0,96,0.01,,,0.14,meteohub,2013-05-25 10:02:00,
2013-05-25 05:07:00,47.5,46.0,30.24,East,90,5.0,11.0,95,0.01,,,0.14,meteohub,2013-05-25 10:07:00,
2013-05-25 05:12:00,47.3,45.9,30.24,SE,135,8.0,11.0,95,0.01,,,0.14,meteohub,2013-05-25 10:12:00,
2013-05-25 05:17:00,47.3,45.9,30.25,SE,135,7.0,8.0,95,0.01,,,0.14,meteohub,2013-05-25 10:17:00,
2013-05-25 05:22:00,47.3,45.9,30.26,SE,135,4.0,8.0,95,0.01,,,0.14,meteohub,2013-05-25 10:22:00,
2013-05-25 05:27:00,47.3,45.9,30.26,SE,135,4.0,8.0,95,0.00,,,0.14,meteohub,2013-05-25 10:27:00,
2013-05-25 05:32:00,47.1,46.0,30.27,East,90,4.0,8.0,96,0.00,,,0.14,meteohub,2013-05-25 10:32:00,
2013-05-25 05:37:00,47.1,46.0,30.28,SE,135,4.0,7.0,96,0.00,,,0.14,meteohub,2013-05-25 10:37:00,
2013-05-25 05:42:00,47.1,46.0,30.28,SE,135,4.0,6.0,96,0.00,,,0.14,meteohub,2013-05-25 10:42:00,
2013-05-25 05:47:00,46.9,46.2,30.28,SE,135,4.0,6.0,97,0.00,,,0.14,meteohub,2013-05-25 10:47:00,
2013-05-25 05:52:00,46.9,46.2,30.28,East,90,5.0,6.0,97,0.00,,,0.14,meteohub,2013-05-25 10:52:00,
2013-05-25 05:57:00,47.1,46.4,30.27,East,90,6.0,6.0,97,0.00,,,0.14,meteohub,2013-05-25 10:57:00,
2013-05-25 06:02:00,46.8,46.2,30.28,South,180,6.0,6.0,98,0.00,,,0.14,meteohub,2013-05-25 11:02:00,
2013-05-25 06:07:00,46.8,46.6,30.27,East,90,8.0,8.0,99,0.00,,,0.14,meteohub,2013-05-25 11:07:00,
2013-05-25 06:12:00,46.8,46.2,30.27,SE,135,8.0,8.0,98,0.00,,,0.14,meteohub,2013-05-25 11:12:00,
2013-05-25 06:17:00,46.9,46.2,30.27,SE,135,5.0,11.0,97,0.00,,,0.14,meteohub,2013-05-25 11:17:00,
2013-05-25 06:22:00,46.8,46.0,30.28,SE,135,8.0,11.0,97,0.00,,,0.14,meteohub,2013-05-25 11:22:00,
2013-05-25 06:27:00,46.8,45.3,30.28,SE,135,8.0,11.0,95,0.00,,,0.14,meteohub,2013-05-25 11:27:00,
2013-05-25 06:32:00,46.8,45.1,30.28,SE,135,8.0,9.0,94,0.00,,,0.14,meteohub,2013-05-25 11:32:00,
2013-05-25 06:37:00,46.8,45.1,30.28,East,90,8.0,9.0,94,0.00,,,0.14,meteohub,2013-05-25 11:37:00,
2013-05-25 06:42:00,46.8,44.8,30.28,East,90,7.0,9.0,93,0.00,,,0.14,meteohub,2013-05-25 11:42:00,
2013-05-25 06:47:00,46.8,44.8,30.29,SE,135,7.0,9.0,93,0.00,,,0.14,meteohub,2013-05-25 11:47:00,
2013-05-25 06:52:00,46.9,44.8,30.28,SE,135,4.0,8.0,92,0.00,,,0.14,meteohub,2013-05-25 11:52:00,
2013-05-25 06:57:00,46.9,45.0,30.28,East,90,8.0,8.0,93,0.00,,,0.14,meteohub,2013-05-25 11:57:00,
2013-05-25 07:02:00,46.9,45.3,30.27,SE,135,8.0,11.0,94,0.00,,,0.14,meteohub,2013-05-25 12:02:00,
2013-05-25 07:07:00,46.9,45.3,30.27,East,90,8.0,11.0,94,0.00,,,0.14,meteohub,2013-05-25 12:07:00,
2013-05-25 07:12:00,46.9,45.3,30.28,East,90,4.0,11.0,94,0.00,,,0.14,meteohub,2013-05-25 12:12:00,
2013-05-25 07:18:00,46.8,44.8,30.28,East,90,8.0,11.0,93,0.00,,,0.14,meteohub,2013-05-25 12:18:00,
2013-05-25 07:23:00,46.8,44.8,30.28,SE,135,11.0,11.0,93,0.00,,,0.14,meteohub,2013-05-25 12:23:00,
2013-05-25 07:28:00,46.8,44.6,30.28,East,90,6.0,12.0,92,0.00,,,0.14,meteohub,2013-05-25 12:28:00,
2013-05-25 07:33:00,46.8,44.6,30.28,SE,135,12.0,12.0,92,0.00,,,0.14,meteohub,2013-05-25 12:33:00,
2013-05-25 07:38:00,46.9,44.4,30.28,NW,315,8.0,12.0,91,0.00,,,0.14,meteohub,2013-05-25 12:38:00,
2013-05-25 07:43:00,46.9,44.2,30.28,SE,135,11.0,12.0,90,0.00,,,0.14,meteohub,2013-05-25 12:43:00,
2013-05-25 07:48:00,47.1,44.4,30.27,East,90,8.0,12.0,90,0.00,,,0.14,meteohub,2013-05-25 12:48:00,
2013-05-25 07:53:00,47.1,44.4,30.27,SE,135,13.0,13.0,90,0.00,,,0.14,meteohub,2013-05-25 12:53:00,
2013-05-25 07:58:00,47.1,44.4,30.27,SE,135,6.0,13.0,90,0.00,,,0.14,meteohub,2013-05-25 12:58:00,
2013-05-25 08:03:00,47.1,44.4,30.27,East,90,7.0,13.0,90,0.00,,,0.14,meteohub,2013-05-25 13:03:00,
2013-05-25 08:08:00,47.1,44.4,30.27,SE,135,7.0,13.0,90,0.00,,,0.14,meteohub,2013-05-25 13:08:00,
2013-05-25 08:13:00,47.1,44.4,30.27,East,90,8.0,10.0,90,0.00,,,0.14,meteohub,2013-05-25 13:13:00,
2013-05-25 08:18:00,47.3,44.6,30.27,SE,135,10.0,10.0,90,0.00,,,0.14,meteohub,2013-05-25 13:18:00,
2013-05-25 08:23:00,47.5,44.8,30.27,East,90,9.0,10.0,90,0.00,,,0.14,meteohub,2013-05-25 13:23:00,
2013-05-25 08:28:00,47.7,44.6,30.27,East,90,9.0,10.0,89,0.00,,,0.14,meteohub,2013-05-25 13:28:00,
2013-05-25 08:33:00,47.8,44.4,30.27,SE,135,8.0,11.0,88,0.00,,,0.14,meteohub,2013-05-25 13:33:00,
2013-05-25 08:39:00,48.0,44.6,30.27,SE,135,8.0,11.0,88,0.00,,,0.14,meteohub,2013-05-25 13:39:00,
2013-05-25 08:44:00,48.0,45.0,30.27,SE,135,7.0,11.0,89,0.00,,,0.14,meteohub,2013-05-25 13:44:00,
2013-05-25 08:49:00,48.2,44.8,30.27,SE,135,8.0,10.0,88,0.00,,,0.14,meteohub,2013-05-25 13:49:00,
2013-05-25 08:54:00,48.2,44.8,30.27,SE,135,6.0,10.0,88,0.00,,,0.14,meteohub,2013-05-25 13:54:00,
2013-05-25 08:59:00,48.2,44.6,30.27,SE,135,10.0,10.0,87,0.00,,,0.14,meteohub,2013-05-25 13:59:00,
2013-05-25 09:04:00,48.4,44.4,30.27,SE,135,4.0,11.0,86,0.00,,,0.14,meteohub,2013-05-25 14:04:00,
2013-05-25 09:09:00,48.4,44.4,30.27,SE,135,7.0,11.0,86,0.00,,,0.14,meteohub,2013-05-25 14:09:00,
2013-05-25 09:14:00,48.6,43.9,30.27,SE,135,10.0,11.0,84,0.00,,,0.14,meteohub,2013-05-25 14:14:00,
2013-05-25 09:19:00,48.6,43.3,30.27,SE,135,7.0,11.0,82,0.00,,,0.14,meteohub,2013-05-25 14:19:00,
2013-05-25 09:24:00,48.4,43.5,30.27,SE,135,11.0,11.0,83,0.00,,,0.14,meteohub,2013-05-25 14:24:00,
2013-05-25 09:29:00,48.6,42.6,30.27,SE,135,12.0,12.0,80,0.00,,,0.14,meteohub,2013-05-25 14:29:00,
2013-05-25 09:34:00,48.6,42.6,30.27,SE,135,8.0,11.0,80,0.00,,,0.14,meteohub,2013-05-25 14:34:00,
2013-05-25 09:39:00,48.6,43.3,30.27,SE,135,8.0,12.0,82,0.00,,,0.14,meteohub,2013-05-25 14:39:00,
2013-05-25 09:44:00,48.4,43.5,30.27,East,90,9.0,12.0,83,0.00,,,0.14,meteohub,2013-05-25 14:44:00,
2013-05-25 09:49:00,48.6,43.7,30.28,ESE,113,9.0,11.0,83,0.00,,,0.14,meteohub,2013-05-25 14:49:00,
2013-05-25 09:54:00,48.6,43.7,30.28,SE,135,11.0,11.0,83,0.00,,,0.14,meteohub,2013-05-25 14:54:00,
2013-05-25 09:59:00,48.6,43.7,30.28,East,90,6.0,11.0,83,0.00,,,0.14,meteohub,2013-05-25 14:59:00,
2013-05-25 10:05:00,48.6,43.7,30.28,SE,135,6.0,11.0,83,0.00,,,0.14,meteohub,2013-05-25 15:05:00,
2013-05-25 10:10:00,48.7,43.5,30.28,South,180,6.0,11.0,82,0.00,,,0.14,meteohub,2013-05-25 15:10:00,
2013-05-25 10:15:00,48.7,43.5,30.28,SE,135,4.0,8.0,82,0.00,,,0.14,meteohub,2013-05-25 15:15:00,
2013-05-25 10:20:00,48.9,44.1,30.28,SE,135,4.0,8.0,83,0.00,,,0.14,meteohub,2013-05-25 15:20:00,
2013-05-25 10:25:00,48.9,44.2,30.29,SE,135,4.0,7.0,84,0.00,,,0.14,meteohub,2013-05-25 15:25:00,
2013-05-25 10:30:00,48.9,44.2,30.29,SE,135,6.0,6.0,84,0.00,,,0.14,meteohub,2013-05-25 15:30:00,
2013-05-25 10:35:00,48.9,44.2,30.29,SE,135,6.0,6.0,84,0.00,,,0.14,meteohub,2013-05-25 15:35:00,
2013-05-25 10:40:00,49.1,43.5,30.29,SE,135,8.0,8.0,81,0.00,,,0.14,meteohub,2013-05-25 15:40:00,
2013-05-25 10:45:00,49.1,43.2,30.29,SE,135,8.0,8.0,80,0.00,,,0.14,meteohub,2013-05-25 15:45:00,
2013-05-25 10:50:00,49.1,42.8,30.29,SE,135,7.0,9.0,79,0.00,,,0.14,meteohub,2013-05-25 15:50:00,
2013-05-25 10:55:00,49.1,42.6,30.29,South,180,8.0,9.0,78,0.00,,,0.14,meteohub,2013-05-25 15:55:00,
2013-05-25 11:00:00,49.3,42.4,30.29,SE,135,8.0,9.0,77,0.00,,,0.14,meteohub,2013-05-25 16:00:00,
2013-05-25 11:05:00,49.1,42.3,30.29,SE,135,8.0,9.0,77,0.00,,,0.14,meteohub,2013-05-25 16:05:00,
2013-05-25 11:10:00,49.1,42.3,30.29,SE,135,12.0,12.0,77,0.00,,,0.14,meteohub,2013-05-25 16:10:00,
2013-05-25 11:15:00,48.9,42.1,30.29,SE,135,11.0,12.0,77,0.00,,,0.14,meteohub,2013-05-25 16:15:00,
2013-05-25 11:20:00,48.9,42.4,30.28,SE,135,11.0,12.0,78,0.00,,,0.14,meteohub,2013-05-25 16:20:00,
2013-05-25 11:25:00,48.7,42.4,30.28,South,180,10.0,12.0,79,0.00,,,0.14,meteohub,2013-05-25 16:25:00,
2013-05-25 11:31:00,48.7,42.4,30.28,SE,135,5.0,11.0,79,0.01,,,0.15,meteohub,2013-05-25 16:31:00,
2013-05-25 11:36:00,48.7,42.4,30.27,East,90,9.0,11.0,79,0.01,,,0.15,meteohub,2013-05-25 16:36:00,
2013-05-25 11:41:00,48.9,42.6,30.26,ESE,113,8.0,11.0,79,0.01,,,0.15,meteohub,2013-05-25 16:41:00,
2013-05-25 11:46:00,48.9,43.0,30.26,SE,135,7.0,11.0,80,0.01,,,0.15,meteohub,2013-05-25 16:46:00,
2013-05-25 11:51:00,48.9,43.0,30.26,SE,135,8.0,11.0,80,0.01,,,0.15,meteohub,2013-05-25 16:51:00,
2013-05-25 11:56:00,49.1,43.2,30.24,East,90,11.0,11.0,80,0.01,,,0.15,meteohub,2013-05-25 16:56:00,
2013-05-25 12:01:00,49.3,42.8,30.23,SE,135,8.0,11.0,78,0.01,,,0.15,meteohub,2013-05-25 17:01:00,
2013-05-25 12:06:00,49.5,42.6,30.21,SE,135,8.0,12.0,77,0.01,,,0.15,meteohub,2013-05-25 17:06:00,
2013-05-25 12:11:00,50.0,42.4,30.21,East,90,15.0,15.0,75,0.01,,,0.15,meteohub,2013-05-25 17:11:00,
2013-05-25 12:16:00,50.4,42.1,30.20,SE,135,10.0,15.0,73,0.01,,,0.15,meteohub,2013-05-25 17:16:00,
2013-05-25 12:21:00,50.7,42.1,30.19,East,90,10.0,15.0,72,0.01,,,0.15,meteohub,2013-05-25 17:21:00,
2013-05-25 12:26:00,51.1,42.4,30.18,East,90,11.0,15.0,72,0.01,,,0.15,meteohub,2013-05-25 17:26:00,
2013-05-25 12:31:00,51.4,42.8,30.18,SE,135,12.0,15.0,72,0.00,,,0.15,meteohub,2013-05-25 17:31:00,
2013-05-25 12:36:00,51.8,42.6,30.18,South,180,16.0,16.0,71,0.00,,,0.15,meteohub,2013-05-25 17:36:00,
2013-05-25 12:41:00,51.8,41.5,30.19,East,90,10.0,16.0,68,0.00,,,0.15,meteohub,2013-05-25 17:41:00,
2013-05-25 12:46:00,52.2,41.2,30.20,East,90,8.0,16.0,66,0.00,,,0.15,meteohub,2013-05-25 17:46:00,
2013-05-25 12:51:00,52.3,41.4,30.22,SE,135,8.0,16.0,66,0.00,,,0.15,meteohub,2013-05-25 17:51:00,
2013-05-25 12:56:00,52.3,40.5,30.22,SE,135,8.0,12.0,64,0.00,,,0.15,meteohub,2013-05-25 17:56:00,
2013-05-25 13:01:00,52.5,40.6,30.23,SE,135,6.0,11.0,64,0.00,,,0.15,meteohub,2013-05-25 18:01:00,
2013-05-25 13:07:00,52.3,41.0,30.24,SE,135,8.0,10.0,65,0.00,,,0.15,meteohub,2013-05-25 18:07:00,
2013-05-25 13:12:00,52.3,41.7,30.23,SE,135,10.0,10.0,67,0.00,,,0.15,meteohub,2013-05-25 18:12:00,
2013-05-25 13:17:00,52.2,40.8,30.23,SE,135,4.0,11.0,65,0.00,,,0.15,meteohub,2013-05-25 18:17:00,
2013-05-25 13:22:00,52.2,41.5,30.23,South,180,10.0,11.0,67,0.00,,,0.15,meteohub,2013-05-25 18:22:00,
2013-05-25 13:27:00,52.0,42.1,30.23,South,180,6.0,11.0,69,0.00,,,0.15,meteohub,2013-05-25 18:27:00,
2013-05-25 13:32:00,51.8,42.6,30.23,ESE,113,6.0,11.0,71,0.00,,,0.15,meteohub,2013-05-25 18:32:00,
2013-05-25 13:37:00,51.4,43.2,30.23,East,90,8.0,11.0,73,0.00,,,0.15,meteohub,2013-05-25 18:37:00,
2013-05-25 13:42:00,51.3,43.3,30.23,SE,135,7.0,12.0,74,0.00,,,0.15,meteohub,2013-05-25 18:42:00,
2013-05-25 13:47:00,51.3,43.5,30.22,East,90,8.0,12.0,75,0.00,,,0.15,meteohub,2013-05-25 18:47:00,
2013-05-25 13:52:00,51.3,43.5,30.23,East,90,6.0,12.0,75,0.00,,,0.15,meteohub,2013-05-25 18:52:00,
2013-05-25 13:57:00,51.3,43.9,30.23,East,90,7.0,11.0,76,0.00,,,0.15,meteohub,2013-05-25 18:57:00,
2013-05-25 14:02:00,51.3,43.9,30.23,East,90,5.0,11.0,76,0.00,,,0.15,meteohub,2013-05-25 19:02:00,
2013-05-25 14:07:00,51.3,44.2,30.23,SE,135,8.0,11.0,77,0.00,,,0.15,meteohub,2013-05-25 19:07:00,
2013-05-25 14:12:00,51.3,44.6,30.24,South,180,5.0,8.0,78,0.00,,,0.15,meteohub,2013-05-25 19:12:00,
2013-05-25 14:17:00,51.1,44.8,30.25,East,90,5.0,8.0,79,0.00,,,0.15,meteohub,2013-05-25 19:17:00,
2013-05-25 14:22:00,50.9,45.0,30.25,South,180,4.0,8.0,80,0.00,,,0.15,meteohub,2013-05-25 19:22:00,
2013-05-25 14:27:00,50.7,45.1,30.25,East,90,9.0,9.0,81,0.00,,,0.15,meteohub,2013-05-25 19:27:00,
2013-05-25 14:33:00,50.5,45.0,30.25,SE,135,7.0,9.0,81,0.01,,,0.17,meteohub,2013-05-25 19:33:00,
2013-05-25 14:38:00,50.2,45.1,30.25,SE,135,6.0,9.0,83,0.01,,,0.17,meteohub,2013-05-25 19:38:00,
2013-05-25 14:43:00,50.0,45.0,30.25,SE,135,4.0,9.0,83,0.02,,,0.18,meteohub,2013-05-25 19:43:00,
2013-05-25 14:48:00,50.0,45.3,30.26,SE,135,4.0,8.0,84,0.02,,,0.18,meteohub,2013-05-25 19:48:00,
2013-05-25 14:53:00,50.0,45.7,30.27,SE,135,4.0,8.0,85,0.04,,,0.19,meteohub,2013-05-25 19:53:00,
2013-05-25 14:58:00,50.0,46.0,30.26,East,90,3.0,7.0,86,0.04,,,0.19,meteohub,2013-05-25 19:58:00,
2013-05-25 15:03:00,50.0,46.6,30.26,SE,135,4.0,4.0,88,0.05,,,0.20,meteohub,2013-05-25 20:03:00,
2013-05-25 15:08:00,50.2,47.1,30.26,East,90,3.0,4.0,89,0.05,,,0.20,meteohub,2013-05-25 20:08:00,
2013-05-25 15:13:00,50.2,47.3,30.25,ESE,113,4.0,6.0,90,0.06,,,0.21,meteohub,2013-05-25 20:13:00,
2013-05-25 15:18:00,50.4,47.8,30.25,SE,135,5.0,6.0,91,0.06,,,0.21,meteohub,2013-05-25 20:18:00,
2013-05-25 15:23:00,50.4,47.5,30.25,SE,135,5.0,5.0,90,0.06,,,0.21,meteohub,2013-05-25 20:23:00,
2013-05-25 15:28:00,50.5,47.5,30.25,SE,135,4.0,5.0,89,0.06,,,0.22,meteohub,2013-05-25 20:28:00,
2013-05-25 15:33:00,50.7,47.3,30.25,SE,135,6.0,8.0,88,0.06,,,0.22,meteohub,2013-05-25 20:33:00,
2013-05-25 15:38:00,50.5,46.2,30.25,East,90,4.0,8.0,85,0.06,,,0.22,meteohub,2013-05-25 20:38:00,
2013-05-25 15:43:00,50.9,46.2,30.25,SE,135,6.0,8.0,84,0.05,,,0.22,meteohub,2013-05-25 20:43:00,
2013-05-25 15:48:00,50.5,45.5,30.25,SE,135,7.0,8.0,83,0.05,,,0.22,meteohub,2013-05-25 20:48:00,
2013-05-25 15:53:00,50.4,44.8,30.25,SE,135,8.0,11.0,81,0.04,,,0.22,meteohub,2013-05-25 20:53:00,
2013-05-25 15:59:00,50.0,44.8,30.24,SE,135,8.0,11.0,82,0.04,,,0.22,meteohub,2013-05-25 20:59:00,
2013-05-25 16:04:00,49.6,44.8,30.24,SE,135,10.0,11.0,83,0.02,,,0.22,meteohub,2013-05-25 21:04:00,
2013-05-25 16:09:00,49.3,44.6,30.24,East,90,9.0,11.0,84,0.02,,,0.22,meteohub,2013-05-25 21:09:00,
2013-05-25 16:14:00,49.3,45.0,30.24,East,90,7.0,11.0,85,0.01,,,0.22,meteohub,2013-05-25 21:14:00,
2013-05-25 16:19:00,49.5,45.1,30.24,SE,135,8.0,11.0,85,0.01,,,0.22,meteohub,2013-05-25 21:19:00,
2013-05-25 16:24:00,49.5,45.5,30.24,East,90,6.0,11.0,86,0.01,,,0.22,meteohub,2013-05-25 21:24:00,
2013-05-25 16:29:00,49.5,45.5,30.24,SE,135,4.0,8.0,86,0.00,,,0.22,meteohub,2013-05-25 21:29:00,
2013-05-25 16:34:00,49.6,45.7,30.24,SE,135,8.0,8.0,86,0.00,,,0.22,meteohub,2013-05-25 21:34:00,
2013-05-25 16:39:00,49.6,45.9,30.24,SE,135,5.0,8.0,87,0.00,,,0.22,meteohub,2013-05-25 21:39:00,
2013-05-25 16:44:00,49.8,45.9,30.23,SE,135,7.0,8.0,86,0.00,,,0.22,meteohub,2013-05-25 21:44:00,
2013-05-25 16:50:00,50.0,45.3,30.23,SE,135,5.0,8.0,84,0.00,,,0.22,meteohub,2013-05-25 21:50:00,
2013-05-25 16:55:00,50.2,45.9,30.23,SE,135,4.0,8.0,85,0.00,,,0.22,meteohub,2013-05-25 21:55:00,
2013-05-25 17:00:00,50.2,45.5,30.23,East,90,6.0,8.0,84,0.00,,,0.22,meteohub,2013-05-25 22:00:00,
2013-05-25 17:05:00,50.4,45.3,30.23,East,90,5.0,8.0,83,0.00,,,0.22,meteohub,2013-05-25 22:05:00,
2013-05-25 17:10:00,50.5,45.9,30.23,SE,135,4.0,8.0,84,0.00,,,0.22,meteohub,2013-05-25 22:10:00,
2013-05-25 17:15:00,50.5,45.9,30.23,SE,135,5.0,8.0,84,0.00,,,0.22,meteohub,2013-05-25 22:15:00,
2013-05-25 17:20:00,50.4,46.0,30.22,SE,135,6.0,8.0,85,0.00,,,0.22,meteohub,2013-05-25 22:20:00,
2013-05-25 17:25:00,50.5,46.6,30.23,South,180,5.0,8.0,86,0.00,,,0.22,meteohub,2013-05-25 22:25:00,
2013-05-25 17:30:00,50.5,46.6,30.23,SE,135,4.0,8.0,86,0.00,,,0.22,meteohub,2013-05-25 22:30:00,
2013-05-25 17:35:00,50.7,46.8,30.24,East,90,4.0,8.0,86,0.00,,,0.22,meteohub,2013-05-25 22:35:00,
2013-05-25 17:40:00,50.9,46.9,30.23,South,180,4.0,5.0,86,0.00,,,0.22,meteohub,2013-05-25 22:40:00,
2013-05-25 17:45:00,51.1,47.3,30.23,SE,135,4.0,5.0,87,0.00,,,0.22,meteohub,2013-05-25 22:45:00,
2013-05-25 17:50:00,51.1,47.3,30.23,East,90,4.0,8.0,87,0.00,,,0.22,meteohub,2013-05-25 22:50:00,
2013-05-25 17:55:00,51.1,47.3,30.22,ESE,113,5.0,8.0,87,0.00,,,0.22,meteohub,2013-05-25 22:55:00,
2013-05-25 18:00:00,51.3,47.5,30.22,East,90,4.0,8.0,87,0.00,,,0.22,meteohub,2013-05-25 23:00:00,
2013-05-25 18:05:00,51.4,47.7,30.22,NE,45,5.0,8.0,87,0.00,,,0.22,meteohub,2013-05-25 23:05:00,
2013-05-25 18:11:00,51.4,47.7,30.23,South,180,3.0,8.0,87,0.00,,,0.22,meteohub,2013-05-25 23:11:00,
2013-05-25 18:16:00,51.6,47.8,30.22,South,180,4.0,7.0,87,0.00,,,0.22,meteohub,2013-05-25 23:16:00,
2013-05-25 18:21:00,51.6,48.2,30.22,East,90,4.0,7.0,88,0.00,,,0.22,meteohub,2013-05-25 23:21:00,
2013-05-25 18:26:00,51.6,47.8,30.22,SE,135,6.0,7.0,87,0.00,,,0.22,meteohub,2013-05-25 23:26:00,
2013-05-25 18:31:00,51.6,48.2,30.21,SE,135,7.0,7.0,88,0.00,,,0.22,meteohub,2013-05-25 23:31:00,
2013-05-25 18:36:00,51.8,47.7,30.21,East,90,6.0,10.0,86,0.00,,,0.22,meteohub,2013-05-25 23:36:00,
2013-05-25 18:41:00,52.0,47.8,30.21,SE,135,5.0,10.0,86,0.00,,,0.22,meteohub,2013-05-25 23:41:00,
2013-05-25 18:46:00,52.0,47.8,30.22,East,90,6.0,8.0,86,0.00,,,0.22,meteohub,2013-05-25 23:46:00,
2013-05-25 18:51:00,52.2,48.0,30.21,SE,135,7.0,8.0,86,0.00,,,0.22,meteohub,2013-05-25 23:51:00,
2013-05-25 18:56:00,52.2,48.4,30.21,SE,135,4.0,10.0,87,0.00,,,0.22,meteohub,2013-05-25 23:56:00,
2013-05-25 19:01:00,52.0,47.8,30.21,SE,135,9.0,10.0,86,0.00,,,0.22,meteohub,2013-05-26 00:01:00,
2013-05-25 19:06:00,52.0,47.8,30.21,East,90,11.0,11.0,86,0.00,,,0.00,meteohub,2013-05-26 00:06:00,
2013-05-25 19:11:00,52.0,47.7,30.20,SE,135,9.0,11.0,85,0.00,,,0.00,meteohub,2013-05-26 00:11:00,
2013-05-25 19:16:00,52.0,47.7,30.21,SE,135,7.0,11.0,85,0.00,,,0.00,meteohub,2013-05-26 00:16:00,
2013-05-25 19:21:00,52.0,47.7,30.21,SE,135,11.0,11.0,85,0.00,,,0.00,meteohub,2013-05-26 00:21:00,
2013-05-25 19:27:00,52.0,47.3,30.21,SE,135,8.0,11.0,84,0.00,,,0.00,meteohub,2013-05-26 00:27:00,
2013-05-25 19:32:00,51.8,47.1,30.21,East,90,8.0,11.0,84,0.00,,,0.00,meteohub,2013-05-26 00:32:00,
2013-05-25 19:37:00,51.8,47.5,30.21,East,90,7.0,11.0,85,0.00,,,0.00,meteohub,2013-05-26 00:37:00,
2013-05-25 19:42:00,51.8,47.5,30.20,East,90,6.0,10.0,85,0.00,,,0.00,meteohub,2013-05-26 00:42:00,
2013-05-25 19:47:00,51.8,47.5,30.20,SE,135,8.0,9.0,85,0.00,,,0.00,meteohub,2013-05-26 00:47:00,
2013-05-25 19:52:00,51.6,47.5,30.21,East,90,4.0,9.0,86,0.00,,,0.00,meteohub,2013-05-26 00:52:00,
2013-05-25 19:57:00,51.4,47.7,30.21,SE,135,4.0,9.0,87,0.00,,,0.00,meteohub,2013-05-26 00:57:00,
2013-05-25 20:02:00,51.4,48.0,30.21,South,180,8.0,8.0,88,0.00,,,0.00,meteohub,2013-05-26 01:02:00,
2013-05-25 20:07:00,51.4,48.0,30.21,SE,135,6.0,8.0,88,0.00,,,0.00,meteohub,2013-05-26 01:07:00,
2013-05-25 20:12:00,51.3,47.8,30.20,SE,135,7.0,8.0,88,0.00,,,0.00,meteohub,2013-05-26 01:12:00,
2013-05-25 20:17:00,51.3,47.5,30.20,SE,135,7.0,9.0,87,0.00,,,0.00,meteohub,2013-05-26 01:17:00,
2013-05-25 20:22:00,51.3,47.3,30.21,East,90,7.0,9.0,86,0.00,,,0.00,meteohub,2013-05-26 01:22:00,
2013-05-25 20:27:00,51.3,46.9,30.21,NE,45,2.0,9.0,85,0.00,,,0.00,meteohub,2013-05-26 01:27:00,
2013-05-25 20:32:00,51.3,46.9,30.20,South,180,2.0,8.0,85,0.00,,,0.00,meteohub,2013-05-26 01:32:00,
2013-05-25 20:37:00,50.9,46.2,30.20,SE,135,7.0,7.0,84,0.00,,,0.00,meteohub,2013-05-26 01:37:00,
2013-05-25 20:42:00,50.7,46.0,30.20,SE,135,7.0,7.0,84,0.00,,,0.00,meteohub,2013-05-26 01:42:00,
2013-05-25 20:47:00,50.5,46.2,30.20,SE,135,6.0,8.0,85,0.00,,,0.00,meteohub,2013-05-26 01:47:00,
2013-05-25 20:52:00,50.5,45.9,30.20,SE,135,7.0,8.0,84,0.00,,,0.00,meteohub,2013-05-26 01:52:00,
2013-05-25 20:57:00,50.4,45.7,30.20,SE,135,9.0,9.0,84,0.00,,,0.00,meteohub,2013-05-26 01:57:00,
2013-05-25 21:02:00,50.2,45.5,30.20,SE,135,7.0,9.0,84,0.00,,,0.00,meteohub,2013-05-26 02:02:00,
2013-05-25 21:07:00,50.2,45.1,30.21,East,90,9.0,9.0,83,0.00,,,0.00,meteohub,2013-05-26 02:07:00,
2013-05-25 21:12:00,50.2,45.1,30.20,ESE,113,8.0,9.0,83,0.00,,,0.00,meteohub,2013-05-26 02:12:00,
2013-05-25 21:17:00,50.0,45.0,30.21,ESE,113,5.0,9.0,83,0.00,,,0.00,meteohub,2013-05-26 02:17:00,
2013-05-25 21:22:00,49.8,44.8,30.20,SE,135,7.0,9.0,83,0.00,,,0.00,meteohub,2013-05-26 02:22:00,
2013-05-25 21:27:00,49.5,44.8,30.21,SE,135,7.0,8.0,84,0.00,,,0.00,meteohub,2013-05-26 02:27:00,
2013-05-25 21:32:00,49.5,44.6,30.20,SE,135,7.0,9.0,83,0.00,,,0.00,meteohub,2013-05-26 02:32:00,
2013-05-25 21:37:00,49.5,44.6,30.20,SE,135,7.0,9.0,83,0.00,,,0.00,meteohub,2013-05-26 02:37:00,
2013-05-25 21:42:00,49.5,44.2,30.21,SE,135,7.0,9.0,82,0.00,,,0.00,meteohub,2013-05-26 02:42:00,
2013-05-25 21:47:00,49.3,44.1,30.20,SE,135,6.0,8.0,82,0.00,,,0.00,meteohub,2013-05-26 02:47:00,
2013-05-25 21:52:00,49.1,44.2,30.21,SE,135,7.0,10.0,83,0.00,,,0.00,meteohub,2013-05-26 02:52:00,
2013-05-25 21:57:00,48.9,44.1,30.21,SE,135,6.0,10.0,83,0.00,,,0.00,meteohub,2013-05-26 02:57:00,
2013-05-25 22:02:00,48.9,44.1,30.21,SE,135,4.0,10.0,83,0.00,,,0.00,meteohub,2013-05-26 03:02:00,
2013-05-25 22:07:00,48.9,44.1,30.21,SE,135,4.0,8.0,83,0.00,,,0.00,meteohub,2013-05-26 03:07:00,
2013-05-25 22:12:00,48.6,43.7,30.20,East,90,4.0,8.0,83,0.00,,,0.00,meteohub,2013-05-26 03:12:00,
2013-05-25 22:17:00,48.2,43.5,30.20,SE,135,5.0,8.0,84,0.00,,,0.00,meteohub,2013-05-26 03:17:00,
2013-05-25 22:22:00,47.8,43.9,30.20,SE,135,4.0,5.0,86,0.00,,,0.00,meteohub,2013-05-26 03:22:00,
2013-05-25 22:27:00,47.8,43.9,30.20,SE,135,7.0,7.0,86,0.00,,,0.00,meteohub,2013-05-26 03:27:00,
2013-05-25 22:32:00,48.0,43.7,30.19,SE,135,6.0,8.0,85,0.00,,,0.00,meteohub,2013-05-26 03:32:00,
2013-05-25 22:37:00,48.0,43.7,30.19,SE,135,6.0,8.0,85,0.00,,,0.00,meteohub,2013-05-26 03:37:00,
2013-05-25 22:42:00,48.0,43.7,30.19,SE,135,5.0,8.0,85,0.00,,,0.00,meteohub,2013-05-26 03:42:00,
2013-05-25 22:47:00,48.2,43.3,30.19,East,90,8.0,9.0,83,0.00,,,0.00,meteohub,2013-05-26 03:47:00,
2013-05-25 22:52:00,48.4,43.2,30.19,East,90,7.0,9.0,82,0.00,,,0.00,meteohub,2013-05-26 03:52:00,
2013-05-25 22:57:00,48.4,43.2,30.19,East,90,8.0,9.0,82,0.00,,,0.00,meteohub,2013-05-26 03:57:00,
2013-05-25 23:01:00,48.4,42.8,30.19,East,90,5.0,9.0,81,0.00,,,0.00,meteohub,2013-05-26 04:01:00,
2013-05-25 23:02:00,48.4,42.8,30.19,East,90,4.0,9.0,81,0.00,,,0.00,meteohub,2013-05-26 04:02:00,
2013-05-25 23:03:00,48.4,42.8,30.19,East,90,4.0,9.0,81,0.00,,,0.00,meteohub,2013-05-26 04:03:00,
2013-05-25 23:08:00,48.4,42.8,30.19,East,90,4.0,8.0,81,0.00,,,0.00,meteohub,2013-05-26 04:08:00,
2013-05-25 23:13:00,48.4,42.8,30.19,East,90,3.0,8.0,81,0.00,,,0.00,meteohub,2013-05-26 04:13:00,
2013-05-25 23:19:00,48.4,42.8,30.19,SE,135,5.0,8.0,81,0.00,,,0.00,meteohub,2013-05-26 04:19:00,
2013-05-25 23:24:00,48.4,42.4,30.19,SE,135,7.0,8.0,80,0.00,,,0.00,meteohub,2013-05-26 04:24:00,
2013-05-25 23:29:00,48.6,42.6,30.19,SE,135,7.0,9.0,80,0.00,,,0.00,meteohub,2013-05-26 04:29:00,
2013-05-25 23:34:00,48.7,42.4,30.19,South,180,8.0,9.0,79,0.00,,,0.00,meteohub,2013-05-26 04:34:00,
2013-05-25 23:39:00,48.7,42.3,30.20,SE,135,4.0,9.0,78,0.00,,,0.00,meteohub,2013-05-26 04:39:00,
2013-05-25 23:44:00,48.7,42.3,30.19,East,90,5.0,9.0,78,0.00,,,0.00,meteohub,2013-05-26 04:44:00,
2013-05-25 23:49:00,48.6,42.1,30.19,SE,135,4.0,9.0,78,0.00,,,0.00,meteohub,2013-05-26 04:49:00,
2013-05-25 23:54:00,48.4,41.9,30.20,SE,135,3.0,9.0,78,0.00,,,0.00,meteohub,2013-05-26 04:54:00,
2013-05-25 23:59:00,48.0,41.9,30.19,East,90,4.0,8.0,79,0.00,,,0.00,meteohub,2013-05-26 04:59:00,